Location: Unspecified
(0.0000°N, 0.0000°E)
Time: 23:50:59
(UTC+00:00)

Envisat - Pass Details

Date: 03 December 2022
Orbit: 763 x 765 km, 98.2° (Epoch: 02 December)

Event Time Altitude Azimuth Distance (km) Brightness Sun altitude
Exits shadow 02:59:28 18° 86° (E) 1,800 5.3 -38.8°
Maximum altitude 03:00:30 19° 103° (ESE) 1,746 5.4 -38.6°
Drops below altitude 10° 03:04:02 10° 147° (SSE) 2,300 6.0 -37.8°
Sets 03:06:57 0° 164° (SSE) 3,229 6.8 -37.2°
